[[{"header":{"parameterUnit":"m.s-1","parameterCategory":1,"la1":30.2991,"la2":30.254,"lo1":-89.0895,"lo2":-89.0444,"dy":0.0017,"dx":0.0017,"nx":28,"ny":28,"refTime":"2025-05-31T03:00:00:Z","depth":0,"parameterNumber":2,"parameterNumberName":"U-component_of_WINDS"},"data":[0,0,0,0,0,0,0,0,0,0,0,0,0,0,0,0,0,0,0,0,0,0,0,0,0,0,0,0,0,0,0,0,0,0,0,0,0,0,0,0,0,0,0,0,0,0,0,0,0,0,0,0,0,0,0,0,0,0,2.6908,2.6909,0,2.7004,2.7005,2.7006,2.6973,2.697,2.6968,2.6966,2.7066,2.7071,2.7075,0,0,0,0,0,0,0,0,0,0,0,0,0,2.6695,2.6699,2.6908,2.6909,2.691,2.7004,2.7005,2.7007,2.6973,2.697,2.6968,2.6965,2.7065,2.707,2.7076,0,0,0,0,0,0,0,0,0,0,0,0,0,2.6789,2.67,2.6908,2.6905,2.6905,2.7004,2.7005,2.7007,2.6973,2.697,2.6967,2.6964,2.7063,2.707,2.7076,2.7184,0,0,2.7098,2.7101,0,0,0,0,0,0,0,0,2.6784,2.6797,2.6904,2.6905,2.6906,2.6973,2.6967,2.7066,2.6974,2.6948,2.6966,2.6962,2.7038,2.7047,2.7072,2.7188,2.7193,2.7098,2.7103,2.7106,2.7108,0,0,0,0,0,0,0,2.6777,2.6793,2.6946,2.6906,2.6907,2.6899,2.6908,2.6985,2.701,2.695,2.6948,2.6959,2.7038,2.7065,2.7074,2.7194,2.7098,2.7104,2.7109,2.7111,2.7401,2.7404,0,0,0,0,0,0,2.677,2.6787,2.6943,2.6949,2.6836,2.6905,2.6916,2.6955,2.7009,2.7014,2.6962,2.6957,2.7055,2.7066,2.7077,2.7204,2.7106,2.7112,2.7116,2.7397,2.7401,2.7405,0,0,0,0,0,0,2.6766,2.6784,2.6939,2.6868,2.6887,2.6912,2.6956,2.6958,2.6986,2.7018,2.7022,2.6985,2.7053,2.7067,2.7157,2.7207,2.7115,2.7122,2.7393,2.7398,2.7403,2.7459,0,0,0,0,0,0,2.676,2.6783,2.6824,2.6869,2.689,2.7017,2.6959,2.6963,2.6998,2.6992,2.7041,2.7046,2.7051,2.7146,2.7164,2.7215,2.7127,2.7389,2.7395,2.7402,2.7453,2.7466,2.7477,0,0,0,0,0,2.6752,2.6837,2.6826,2.6845,2.6942,2.702,2.7032,2.7036,2.7002,2.7043,2.7063,2.7044,2.7199,2.7156,2.7175,2.7229,2.7385,2.7393,2.7401,2.7448,2.7463,2.7476,0,0,0,0,0,0,2.6799,2.6843,2.6831,2.6933,2.6973,2.7014,2.7066,2.7053,2.7104,2.7097,2.7101,2.7112,2.7203,2.7226,2.7177,2.7334,2.7287,2.7299,2.7316,2.7331,2.7343,2.7334,2.7133,0,0,0,0,0,2.682,2.688,2.6915,2.7002,2.7022,2.7041,2.7075,2.7074,2.7116,2.7133,2.716,2.7201,2.7258,2.7296,2.7352,2.7457,2.7466,2.7503,2.7515,2.7525,2.7534,2.7589,2.7605,2.7431,2.7431,2.7431,0,0,2.6867,2.6898,2.6935,2.7012,2.7042,2.7103,2.7055,2.7122,2.7166,2.7143,2.7228,2.7249,2.7296,2.7392,2.7437,2.7414,2.7585,2.7535,2.7542,2.7547,2.7599,2.7615,2.763,2.7436,2.7435,2.7434,0,0,2.6981,2.7012,2.7085,2.7117,2.7163,2.7175,2.7193,2.7236,2.7248,2.7334,2.7316,2.737,2.747,2.7503,2.7532,2.7657,2.7641,2.7676,2.7737,2.779,2.7803,2.7816,2.7858,2.7873,2.7686,2.7686,2.7686,0,2.7032,2.7122,2.7125,2.7192,2.7225,2.7206,2.728,2.7311,2.7373,2.7397,2.737,2.7493,2.7524,2.7626,2.7656,2.7682,2.7701,2.7669,2.7801,2.7814,2.7825,2.7865,2.7881,2.7689,2.7689,2.7689,2.7688,0,2.7181,2.7244,2.7298,2.7357,2.7397,2.7468,2.7481,2.7521,2.7517,2.7531,2.7617,2.7652,2.7713,2.7738,2.7736,2.784,2.7824,2.78,2.7752,2.7845,2.7882,2.7898,2.7695,2.7693,2.7692,2.7691,0,0,2.7327,2.7386,2.7405,2.7431,2.748,2.7529,2.7598,2.7656,2.7689,2.7733,2.779,2.7874,2.7851,2.7885,2.7887,2.7934,2.8027,2.7903,2.7904,2.7923,2.8141,2.8157,2.8175,2.8017,2.802,2.8023,2.8136,0,2.7443,2.7563,2.7567,2.7677,2.7733,2.7716,2.7776,2.7812,2.7828,2.7878,2.7895,2.7953,2.792,2.794,2.7986,2.8006,2.807,2.7998,2.8069,2.8071,2.8055,2.8195,2.8213,2.8318,2.8151,2.8154,2.8156,0,2.7594,2.764,2.7756,2.7795,2.7819,2.7872,2.7925,2.7974,2.8015,2.8022,2.8059,2.8053,2.8123,2.8074,2.817,2.812,2.815,2.8164,2.8168,2.8173,2.8117,2.8201,2.8352,2.8367,2.8179,2.8178,2.8176,0,2.7685,2.7777,2.7857,2.788,2.7928,2.7966,2.7988,2.8025,2.8059,2.8106,2.8127,2.8182,2.8211,2.8254,2.8262,2.8226,2.8356,2.8309,2.8363,2.8363,2.839,2.8387,2.8545,2.8413,2.8413,2.8413,2.8413,0,2.7812,2.7882,2.7897,2.7947,2.8024,2.8028,2.8105,2.8125,2.8158,2.821,2.8199,2.8248,2.8257,2.8308,2.8316,2.8392,2.8406,2.8413,2.8414,2.8413,2.8411,2.843,2.8422,2.8417,2.8416,2.8415,2.8415,0,2.7926,2.7939,2.8024,2.8063,2.8074,2.8129,2.8162,2.8209,2.8222,2.8288,2.8304,2.8325,2.8385,2.8397,2.8469,2.8473,2.8563,2.8558,2.8548,2.8547,2.8599,2.8593,2.8773,2.8795,2.8651,2.8652,2.8654,0,2.8005,2.8058,2.8102,2.8135,2.8158,2.8213,2.8247,2.8253,2.8289,2.8338,2.8379,2.8436,2.8482,2.8578,2.86,2.8653,2.8648,2.8707,2.8656,2.8652,2.8645,2.8641,2.8645,2.8716,2.8718,2.8719,2.872,0,2.8143,2.8146,2.8195,2.8247,2.8287,2.8328,2.8367,2.8395,2.8407,2.8448,2.8507,2.8543,2.8614,2.8671,2.8724,2.8747,2.8735,2.8736,2.8751,2.8749,2.874,2.8743,2.8572,2.8731,2.873,2.8729,2.8729,2.8728,2.824,2.8285,2.8322,2.8377,2.8406,2.8442,2.8487,2.8506,2.8555,2.8613,2.8614,2.8678,2.8716,2.8786,2.8812,2.8863,2.8844,2.8866,2.8871,2.8876,2.8879,2.8734,2.8873,2.8872,2.8872,2.8872,2.8872,0,2.8375,2.8397,2.8447,2.8501,2.8544,2.8529,2.8571,2.8607,2.8664,2.87,2.8745,2.8812,2.8867,2.8893,2.8947,2.8982,2.8978,2.8996,2.8992,2.8997,2.8894,2.8875,2.8998,2.8998,2.8998,2.8998,2.8998,2.8998,2.845,2.8525,2.8532,2.8622,2.8644,2.8706,2.8731,2.8764,2.8792,2.8867,2.8912,2.8929,2.8961,2.9016,2.9065,2.9072,2.9091,2.9111,2.9114,2.9017,2.9004,2.8992,2.8973,2.9116,2.9116,2.9212,2.9213,2.9214]},{"header":{"parameterUnit":"m.s-1","parameterCategory":1,"la1":30.2991,"la2":30.254,"lo1":-89.0895,"lo2":-89.0444,"dy":0.0017,"dx":0.0017,"nx":28,"ny":28,"refTime":"2025-05-31T03:00:00:Z","depth":0,"parameterNumber":3,"parameterNumberName":"V-component_of_WINDS"},"data":[0,0,0,0,0,0,0,0,0,0,0,0,0,0,0,0,0,0,0,0,0,0,0,0,0,0,0,0,0,0,0,0,0,0,0,0,0,0,0,0,0,0,0,0,0,0,0,0,0,0,0,0,0,0,0,0,0,0,1.0352,1.0351,0,1.0328,1.0328,1.0327,1.028,1.0279,1.0278,1.0277,1.0252,1.0252,1.0253,0,0,0,0,0,0,0,0,0,0,0,0,0,1.0354,1.0355,1.0352,1.0351,1.0351,1.0328,1.0328,1.0327,1.028,1.0279,1.0277,1.0276,1.0252,1.0252,1.0253,0,0,0,0,0,0,0,0,0,0,0,0,0,1.0344,1.0355,1.0352,1.0325,1.0322,1.0328,1.0328,1.0327,1.028,1.0279,1.0277,1.0276,1.0252,1.0252,1.0253,1.0283,0,0,1.0254,1.0254,0,0,0,0,0,0,0,0,1.0345,1.0344,1.0329,1.0326,1.0323,1.0305,1.032,1.0313,1.028,1.0296,1.0277,1.0275,1.0271,1.027,1.0268,1.0282,1.0281,1.0254,1.0254,1.0254,1.0254,0,0,0,0,0,0,0,1.0346,1.0345,1.0342,1.0329,1.0325,1.0313,1.031,1.0318,1.0292,1.0294,1.0291,1.0289,1.0269,1.0268,1.0267,1.0281,1.0254,1.0254,1.0254,1.0255,1.0317,1.0318,0,0,0,0,0,0,1.035,1.0346,1.0343,1.0342,1.0331,1.0314,1.0311,1.0313,1.0292,1.0287,1.029,1.0287,1.0268,1.0267,1.0266,1.03,1.0254,1.0255,1.0255,1.0315,1.0317,1.0318,0,0,0,0,0,0,1.0351,1.0351,1.0344,1.0343,1.0341,1.0316,1.0318,1.0313,1.0312,1.0288,1.0283,1.0294,1.0267,1.0266,1.0279,1.0298,1.0255,1.0255,1.0313,1.0316,1.0318,1.0368,0,0,0,0,0,0,1.0351,1.0351,1.0363,1.0343,1.0341,1.0358,1.0319,1.0313,1.0312,1.0308,1.029,1.0286,1.0266,1.0279,1.0279,1.0298,1.0255,1.0312,1.0314,1.0317,1.0364,1.0371,1.0377,0,0,0,0,0,1.0351,1.0378,1.0364,1.0364,1.0356,1.0359,1.0358,1.0334,1.0314,1.0326,1.031,1.0287,1.0296,1.0281,1.0281,1.03,1.031,1.0314,1.0317,1.0361,1.037,1.0377,0,0,0,0,0,0,1.0401,1.0375,1.0359,1.0381,1.0372,1.0351,1.0365,1.0344,1.0341,1.0337,1.0307,1.0304,1.0321,1.0311,1.0295,1.0327,1.0299,1.0303,1.0333,1.0341,1.0348,1.035,1.0256,0,0,0,0,0,1.0415,1.042,1.0397,1.0418,1.0415,1.0391,1.0391,1.0373,1.0364,1.036,1.0346,1.0337,1.0337,1.0339,1.0338,1.0362,1.0357,1.0375,1.0382,1.0387,1.0391,1.0402,1.0409,1.0329,1.0329,1.0329,0,0,1.0443,1.0429,1.0435,1.0428,1.042,1.0425,1.0388,1.0396,1.0399,1.0361,1.0373,1.0361,1.0349,1.0368,1.0375,1.0361,1.0412,1.0392,1.0396,1.0397,1.0406,1.0413,1.042,1.0331,1.0331,1.0331,0,0,1.0497,1.0488,1.0504,1.0496,1.0483,1.0466,1.047,1.0451,1.0443,1.0453,1.0424,1.0428,1.043,1.0422,1.0419,1.0468,1.0446,1.0468,1.0503,1.0513,1.052,1.0525,1.0542,1.0548,1.0472,1.0472,1.0472,0,1.0534,1.0541,1.0515,1.0524,1.0521,1.0486,1.0502,1.0495,1.0483,1.0482,1.0465,1.0466,1.0456,1.0471,1.0483,1.0481,1.0484,1.047,1.0521,1.0526,1.0531,1.0546,1.0553,1.0474,1.0474,1.0474,1.0474,0,1.0587,1.0592,1.0606,1.0595,1.0594,1.0606,1.0581,1.0583,1.0565,1.0549,1.056,1.0546,1.0541,1.0543,1.0526,1.0556,1.0547,1.0526,1.0498,1.0542,1.0556,1.0562,1.0478,1.0477,1.0477,1.0476,0,0,1.0673,1.0645,1.0651,1.0645,1.0627,1.0631,1.0641,1.0636,1.0638,1.063,1.0637,1.0639,1.0619,1.0615,1.0596,1.0606,1.0644,1.0583,1.0582,1.0595,1.0675,1.0691,1.0698,1.0629,1.063,1.0631,1.0676,0,1.0723,1.0739,1.0715,1.0736,1.074,1.0706,1.0714,1.0704,1.069,1.069,1.0674,1.0676,1.0649,1.0647,1.0654,1.0638,1.066,1.0634,1.0635,1.0635,1.0639,1.0706,1.0723,1.0766,1.0681,1.0682,1.0683,0,1.0784,1.0779,1.0801,1.078,1.0781,1.0789,1.0782,1.0783,1.077,1.0759,1.0753,1.0731,1.0738,1.071,1.0719,1.0702,1.0701,1.0692,1.0693,1.0693,1.0662,1.0707,1.078,1.0786,1.0691,1.0691,1.069,0,1.0844,1.0842,1.0855,1.0851,1.0827,1.0834,1.0824,1.081,1.0808,1.0801,1.0799,1.0794,1.0791,1.0787,1.0762,1.0744,1.0774,1.0744,1.0765,1.0765,1.0773,1.0773,1.0847,1.0772,1.0772,1.0772,1.0772,0,1.0903,1.0918,1.0881,1.0889,1.0904,1.0875,1.089,1.0877,1.0864,1.0868,1.0838,1.0842,1.081,1.081,1.0791,1.0801,1.08,1.0791,1.0785,1.0793,1.0795,1.0792,1.0789,1.0774,1.0773,1.0773,1.0773,0,1.0973,1.095,1.0961,1.0937,1.0932,1.0943,1.0923,1.0929,1.0911,1.0917,1.0916,1.0889,1.0888,1.0863,1.0857,1.0844,1.0861,1.0851,1.0866,1.0862,1.0884,1.0882,1.0959,1.0967,1.0888,1.0889,1.0889,0,1.1012,1.1023,1.1,1.1,1.0992,1.0993,1.099,1.0962,1.096,1.0945,1.0952,1.0949,1.0944,1.0943,1.0923,1.0917,1.0906,1.0933,1.0905,1.0912,1.0906,1.0906,1.0906,1.0939,1.094,1.0941,1.0942,0,1.1084,1.1071,1.1069,1.1062,1.106,1.1054,1.1045,1.1047,1.1015,1.1015,1.1013,1.1009,1.1002,1.0998,1.0989,1.0978,1.0955,1.0951,1.0955,1.0964,1.0972,1.0967,1.0882,1.0949,1.0949,1.0948,1.0948,1.0947,1.1139,1.1146,1.1131,1.1129,1.1119,1.1112,1.1115,1.1098,1.1096,1.1088,1.1071,1.1071,1.1056,1.1041,1.1032,1.1031,1.1017,1.1024,1.1026,1.1028,1.1032,1.0972,1.103,1.1029,1.1029,1.1029,1.1029,0,1.1209,1.1197,1.1196,1.1184,1.1182,1.116,1.1149,1.1148,1.1149,1.1137,1.1133,1.113,1.1126,1.1104,1.1097,1.1101,1.109,1.11,1.11,1.1097,1.1045,1.1042,1.1109,1.1109,1.1109,1.1109,1.1109,1.1109,1.1245,1.1256,1.1241,1.1245,1.1233,1.1233,1.1229,1.1221,1.1211,1.1209,1.1205,1.1191,1.1175,1.1166,1.1161,1.1154,1.1153,1.1167,1.1157,1.1109,1.1101,1.1094,1.1091,1.1167,1.1167,1.1209,1.121,1.121]}]]